Simultaneous Nadir Overpasses (SNOs) Predictions

Prediction of SNOs between LANDSAT-8 and NOAA-19 Satellite Orbit:

Table of predicted SNOs for the next 14.0 days since TLE Epoch: 5/8/2021
Index Date (LANDSAT-8) Time (LANDSAT-8) Lat,Lon (LANDSAT-8) SZA (LANDSAT-8 ) Date (NOAA-19) Time (NOAA-19) Lat,Lon (NOAA-19) SZA (NOAA-19 ) Distance(km) Time Diff (sec)
1 05/09/2021 06:04:51 80.35, 119.45 64.38 05/09/2021 06:04:56 80.34, 119.51 64.39 1.26 5
2 05/11/2021 11:38:37 -80.35,-143.94 116.19 05/11/2021 11:38:05 -80.36,-144.03 116.20 1.90 32
3 05/11/2021 12:28:03 80.35, 23.71 63.81 05/11/2021 12:29:07 80.34, 23.59 63.82 2.72 64
4 05/13/2021 17:12:22 80.35, -47.37 63.27 05/13/2021 17:11:19 80.36, -47.31 63.26 1.68 63
5 05/13/2021 18:01:49 -80.36, 120.31 116.74 05/13/2021 18:02:15 -80.35, 120.21 116.74 1.91 26
6 05/15/2021 23:35:34 80.35,-143.16 62.73 05/15/2021 23:35:30 80.37,-143.28 62.73 2.60 4
7 05/18/2021 05:09:20 -80.35, -46.60 117.77 05/18/2021 05:08:37 -80.37, -46.64 117.77 2.50 43
8 05/18/2021 05:58:46 80.35, 121.02 62.22 05/18/2021 05:59:40 80.35, 121.06 62.25 0.78 54
9 05/20/2021 10:43:04 80.37, 50.16 61.79 05/20/2021 10:41:52 80.38, 50.07 61.76 1.81 72



Historial Predications of SNOs between LANDSAT-8 and NOAA-19
